Tracking 22287 objects as of 27-Jan-2021
HD Live streaming from Space Station
objects crossing your sky now

JILIN-01 GAOFEN 3J

Track JILIN-01 GAOFEN 3J now!
10-day predictions


NORAD ID: 46462
Int'l Code: 2020-065J
Perigee: 535.4 km
Apogee: 554.0 km
Inclination: 97.5 °
Period: 95.4 minutes
Semi major axis: 6915 km
RCS: Unknown
Launch date: September 15, 2020
Source: People's Republic of China (PRC)
Launch site: Yellow Sea Launch Area, China (YSLA)
aabbcc
Your satellite tracking list
Your tracking list is empty




NASA's NSSDC Master Catalog

Two Line Element Set (TLE):
1 46462U 20065J   21027.19627117  .00000080  00000-0  88891-5 0  9998
2 46462  97.5193  86.4571 0013404 183.8546 262.4362 15.09553249 20242
Source of the keplerian elements: AFSPC